Thunder radar more information blitzortung!


Rain radar more information rain snow radar


Visit our other weather sites:

Template documentation
and downloads

And another site



from: Jan 23 2019 12:00 am until: 12:00 pm Winter Weather Advisory level: Minor
Minimal threat to life or property - Responsive action SHOULD be taken soon (within next hour)
...LIGHT FREEZING RAIN TONIGHT MAY CAUSE TRAVEL ISSUES FOR SOME AREAS NORTHWEST OF INTERSTATE 85... .Light precipitation will overspread the area from the southwest tonight. In locations where surface temperatures fall below freezing tonight, this precipitation will occur as freezing rain. A light accumulation of ice may cause treacherous road conditions

Select another period ( hide this area )

Units Period Custom range Directly to
Metric English Both
Daily Weekly Monthly Yearly
use both date-selectors for a custom range
previous Day
With this date

WeatherUnderground graphs for this period ( click here )


Daily Summary for Tuesday Jan 22 2019
Time Temp. ( °C ) Dew pt. ( °C ) Wind ( km/h ) from Gust ( km/h ) Pressure ( hPa ) Humid.( % ) Rainrate ( cm )
High4,9 -4,9 27,8 WNW ( 147/858 ) 10,8 1039,5 64 -
Average-1,4 -12,2 5,6 West #32/246 1,6 1036,1 46 -
Low-6,4 -15,8 -   0,0 1034,4 21 -
Daily Tabular details for Tuesday Jan 22 2019
Time Temp. ( °C ) Dew pt. ( °C ) Wind ( km/h ) from Gust ( km/h ) Pressure ( hPa ) Humid.( % ) Rainrate ( cm )
00:04 -4,6 -11,2 1,9 SE 0,2 1035,8 60 -
00:09 -4,7 -11,3   Calm 0,3 1035,8 60 -
00:14 -4,7 -11,3 5,6 East 0,8 1036,1 60 -
00:19 -4,8 -11,4   Calm   1036,1 60 -
00:24 -4,7 -11,3 1,9 SW 0,2 1036,1 60 -
00:29 -4,7 -11,3   Calm   1036,1 60 -
00:34 -4,8 -11,2   Calm   1036,5 61 -
00:39 -4,8 -11,4   Calm 0,2 1036,5 60 -
00:44 -4,9 -11,1 1,9 ESE 0,6 1036,1 62 -
00:49 -4,9 -11,3   Calm 0,2 1036,1 61 -
00:54 -4,9 -11,4 1,9 South 0,2 1036,1 60 -
00:59 -4,8 -11,4   Calm   1036,5 60 -
01:04 -4,8 -11,4   Calm   1036,5 60 -
01:09 -4,8 -11,4 1,9 South   1036,5 60 -
01:14 -4,8 -11,8   Calm   1036,5 58 -
01:19 -4,9 -11,1 1,9 West 0,2 1036,5 62 -
01:24 -5,0 -11,4 1,9 West 0,5 1036,5 61 -
01:29 -5,0 -11,4 1,9 West   1036,5 61 -
01:34 -5,1 -11,2   Calm   1036,5 62 -
01:39 -5,2 -11,3   Calm   1036,5 62 -
01:44 -5,2 -11,2 1,9 SW 0,2 1036,5 63 -
01:49 -5,3 -11,1 1,9 East 0,2 1036,5 64 -
01:54 -5,2 -11,7 1,9 ESE 0,2 1036,5 60 -
01:59 -5,1 -11,5 1,9 SSW 1,1 1036,1 61 -
02:04 -4,9 -11,9 1,9 WNW 0,3 1036,5 58 -
02:09 -4,9 -11,7 1,9 NNE 0,2 1036,5 59 -
02:14 -4,9 -11,7 3,7 SSE 0,3 1036,5 59 -
02:19 -5,0 -11,4 1,9 SSE 0,2 1036,5 61 -
02:24 -5,1 -11,5 1,9 West 0,3 1036,5 61 -
02:29 -4,9 -12,2 1,9 WSW 0,3 1036,5 57 -
02:34 -4,8 -11,8 1,9 North 0,5 1036,5 58 -
02:39 -4,8 -11,8 1,9 NNW   1036,8 58 -
02:44 -4,9 -11,9 3,7 West 0,8 1036,8 58 -
02:49 -4,8 -12,1 1,9 WNW 1,8 1036,8 57 -
02:54 -4,8 -12,3 3,7 WSW 1,9 1036,8 56 -
02:59 -4,8 -11,8 1,9 SSW 0,2 1036,8 58 -
03:04 -4,9 -11,9 1,9 SW 0,6 1036,8 58 -
03:09 -5,0 -12,2 1,9 SW   1037,1 57 -
03:14 -5,1 -12,1 1,9 WSW 0,2 1037,1 58 -
03:19 -5,2 -12,2   Calm 0,5 1037,1 58 -
03:24 -5,2 -12,0 1,9 West 0,3 1037,1 59 -
03:29 -5,2 -12,2 1,9 East 0,3 1037,1 58 -
03:34 -5,2 -11,9   Calm 0,2 1037,1 59 -
03:39 -5,2 -12,7 1,9 South   1037,1 56 -
03:44 -5,3 -12,3 1,9 NW 0,5 1037,1 58 -
03:49 -5,3 -12,5 1,9 ESE   1037,1 57 -
03:54 -5,2 -12,9 1,9 SW 1,1 1037,1 55 -
03:59 -5,2 -12,7 1,9 NW 0,2 1037,5 56 -
04:04 -5,2 -13,3 3,7 WNW 0,3 1037,5 53 -
04:09 -5,1 -13,4 1,9 WNW   1037,1 52 -
04:14 -5,2 -13,3 3,7 WNW 0,8 1037,1 53 -
04:19 -5,2 -13,7 3,7 WNW   1037,1 51 -
04:24 -5,2 -13,1   Calm 0,2 1037,1 54 -
04:29 -5,3 -12,9 1,9 SW 0,5 1037,1 55 -
04:34 -5,4 -13,5 5,6 NE 1,1 1037,1 53 -
04:39 -5,4 -12,8   Calm 0,2 1037,1 56 -
04:44 -5,6 -13,2 1,9 ESE   1037,1 55 -
04:49 -5,7 -13,1 1,9 ESE   1037,5 56 -
04:54 -5,7 -13,1   Calm   1037,1 56 -
04:59 -5,8 -13,2 1,9 SE 0,3 1037,5 56 -
05:04 -5,7 -13,1   Calm 0,6 1037,5 56 -
05:09 -5,7 -13,3 1,9 SSW 0,2 1037,5 55 -
05:14 -5,7 -13,3   Calm   1037,5 55 -
05:19 -5,7 -13,3 1,9 SSW 0,8 1037,5 55 -
05:24 -5,8 -12,9 1,9 SSW 0,5 1037,5 57 -
05:29 -5,8 -13,4 1,9 SW 0,2 1037,5 55 -
05:34 -5,8 -13,6 1,9 SW 0,2 1037,8 54 -
05:39 -5,8 -13,8 1,9 SSW 1,3 1037,8 53 -
05:44 -5,8 -13,8 1,9 SW 0,2 1037,8 53 -
05:49 -5,8 -14,1 3,7 SSW 0,6 1037,8 52 -
05:54 -5,8 -13,8 1,9 South 0,3 1037,8 53 -
05:59 -5,8 -13,7   Calm   1037,8 54 -
06:04 -5,9 -13,6 1,9 SSW 0,2 1038,1 55 -
06:09 -6,0 -13,6   Calm   1038,1 55 -
06:14 -5,9 -14,2 5,6 SSW 1,8 1038,1 52 -
06:19 -5,8 -14,1 1,9 South   1038,5 52 -
06:24 -5,9 -13,9   Calm 0,5 1038,5 53 -
06:29 -5,9 -14,0   Calm   1038,5 53 -
06:34 -5,9 -13,8 1,9 WNW 0,3 1038,8 54 -
06:39 -6,1 -13,2 1,9 South 0,2 1038,8 57 -
06:44 -6,2 -13,2 1,9 South   1038,8 58 -
06:49 -6,4 -13,1 1,9 South 0,2 1038,8 59 -
06:54 -6,4 -13,3 1,9 South   1038,8 58 -
06:59 -6,4 -13,2   Calm   1038,8 59 -
07:04 -6,4 -13,3 3,2 SW 1,0 1038,8 58 -
07:09 -6,4 -13,5 1,9 West 0,5 1038,8 57 -
07:15 -6,4 -13,8 1,9 South 0,5 1038,8 56 -
07:19 -6,4 -13,8   Calm   1038,8 56 -
07:24 -6,2 -13,8 4,8 WSW 0,6 1038,8 55 -
07:29 -6,0 -13,8 4,8 NW 2,6 1038,8 54 -
07:34 -6,0 -13,8 3,2 WNW 0,3 1038,8 54 -
07:39 -6,0 -13,8 1,9 SE 0,3 1039,2 54 -
07:44 -6,0 -13,8 1,9 NW 2,4 1039,2 54 -
07:49 -5,9 -13,8 9,3 SSE   1039,2 54 -
07:54 -5,9 -13,7 1,9 NW 1,0 1039,2 54 -
07:59 -5,8 -14,1 4,8 WNW 0,8 1039,2 52 -
08:04 -5,7 -14,0 1,9 SSW 0,6 1039,5 52 -
08:09 -5,6 -14,2 5,6 NNE 2,4 1039,5 51 -
08:14 -5,6 -14,1 1,9 SSW 0,3 1039,5 51 -
08:19 -5,7 -13,5 1,9 NNW 0,3 1039,5 54 -
08:24 -5,7 -13,6 1,6 SW 0,2 1039,5 54 -
08:29 -5,7 -13,7   Calm   1039,2 53 -
08:34 -5,7 -13,1   Calm   1039,5 56 -
08:39 -5,6 -13,9 3,7 WNW 1,0 1039,5 52 -
08:44 -5,6 -13,4 5,6 ESE 1,1 1039,5 54 -
08:49 -5,4 -13,8 3,7 NNW 2,3 1039,2 52 -
08:54 -5,3 -13,6 1,9 NW 4,0 1039,2 52 -
08:59 -4,9 -14,2 5,6 WNW 1,6 1039,2 48 -
09:04 -4,7 -14,3 5,6 WSW 0,8 1039,2 47 -
09:09 -4,6 -13,9 4,8 NNW 1,8 1039,2 48 -
09:14 -4,3 -14,2 9,3 West 0,5 1039,2 46 -
09:19 -4,1 -14,1 5,6 ESE 1,6 1039,2 46 -
09:24 -3,9 -14,4 6,4 WNW 2,3 1039,2 44 -
09:29 -3,6 -14,7 3,2 SSW 2,7 1039,2 42 -
09:34 -3,4 -14,8 14,8 SSE 1,9 1039,2 41 -
09:39 -3,2 -14,6 11,1 South 1,1 1039,2 41 -
09:44 -3,1 -14,6 5,6 West 1,0 1039,2 41 -
09:49 -2,9 -14,7 1,9 WNW 1,4 1039,2 40 -
09:54 -2,8 -14,8 5,6 WNW 1,8 1039,2 39 -
09:59 -2,7 -14,7 11,1 WNW 2,9 1039,2 39 -
10:04 -2,5 -14,6 3,7 NW 1,0 1039,2 39 -
10:09 -2,4 -14,8 9,3 WNW 5,8 1039,2 38 -
10:14 -2,2 -14,0 3,7 West 0,2 1039,2 40 -
10:19 -2,0 -14,1 5,6 NW 0,2 1039,2 39 -
10:24 -1,8 -13,9 16,1 WNW 2,3 1039,2 39 -
10:29 -1,6 -14,4 13,0 East 1,1 1039,2 37 -
10:34 -1,6 -14,7 11,1 North 3,4 1039,2 36 -
10:39 -1,5 -14,7 6,4 NW 3,4 1039,2 36 -
10:44 -1,3 -14,4 3,7 NW 2,3 1039,2 36 -
10:49 -1,2 -14,4 5,6 West 1,6 1039,2 36 -
10:54 -1,0 -14,2 5,6 NW 2,1 1039,2 36 -
10:59 -0,9 -14,5 11,1 SW 4,0 1039,2 35 -
11:04 -0,8 -14,4 5,6 NW 3,1 1039,2 35 -
11:09 -0,7 -14,3 18,5 NW 2,3 1038,8 35 -
11:14 -0,4 -13,7 5,6 WNW 0,5 1039,2 36 -
11:19 -0,4 -13,7 12,9 West 2,1 1039,2 36 -
11:24 -0,3 -13,9 9,3 SW 2,9 1038,8 35 -
11:29 -0,2 -14,2 13,0 West 6,3 1039,2 34 -
11:34 -0,3 -14,3 7,4 ENE 4,0 1038,8 34 -
11:39 -0,1 -14,1 5,6 SSE 0,8 1038,8 34 -
11:44 0,3 -13,4 9,3 WNW 1,8 1038,5 35 -
11:49 0,5 -13,2 7,4 SSW 3,2 1038,5 35 -
11:54 0,7 -13,8 14,8 West 3,9 1038,5 33 -
11:59 0,8 -13,7 9,3 WNW 4,2 1038,1 33 -
12:04 1,1 -13,4 13,0 South 3,9 1038,1 33 -
12:09 1,3 -13,2 5,6 WSW 3,1 1038,1 33 -
12:14 1,5 -13,4 9,3 SW 1,1 1038,1 32 -
12:19 1,5 -13,8 14,8 North 3,7 1037,8 31 -
12:24 1,5 -14,2 14,8 SSW 3,1 1037,8 30 -
12:29 1,5 -14,2 9,3 WSW 7,9 1037,8 30 -
12:34 1,7 -13,7 5,6 WNW 2,3 1037,8 31 -
12:39 1,8 -14,4 16,7 South 1,4 1037,5 29 -
12:44 1,9 -14,3 20,4 West 2,1 1037,5 29 -
12:49 2,1 -14,2 11,1 ESE 6,4 1037,1 29 -
12:54 2,0 -14,7 25,9 WNW 6,1 1037,1 28 -
12:59 2,2 -14,0 5,6 NNW 8,4 1037,1 29 -
13:04 2,7 -13,6 11,3 NW 2,6 1036,8 29 -
13:09 2,8 -14,4 11,1 SSE 2,9 1036,8 27 -
13:14 2,8 -14,9 16,7 South 5,1 1036,5 26 -
13:19 2,9 -14,8 13,0 SSE 1,3 1036,5 26 -
13:24 3,0 -14,7 14,8 WNW 2,4 1036,1 26 -
13:29 3,2 -14,0 7,4 SW 1,6 1036,1 27 -
13:34 3,3 -14,9 5,6 SE 3,7 1036,1 25 -
13:39 3,3 -14,9 5,6 West 7,2 1036,1 25 -
13:44 3,3 -14,9 14,8 NW 6,1 1035,8 25 -
13:49 3,6 -14,2 5,6 NW 5,1 1035,8 26 -
13:54 3,8 -13,9 5,6 SSE 1,9 1035,8 26 -
13:59 4,1 -14,2 11,1 West 3,7 1035,4 25 -
14:04 4,3 -14,6 13,0 West 5,0 1035,1 24 -
14:09 4,4 -15,0 7,4 SSW 2,4 1035,4 23 -
14:14 4,6 -14,8 9,3 NW 2,3 1035,4 23 -
14:19 4,7 -15,8 14,8 North 5,3 1035,1 21 -
14:24 4,8 -14,6 9,3 West 2,7 1035,1 23 -
14:29 4,8 -15,2 7,4 WSW 1,6 1035,1 22 -
14:34 4,5 -15,4 13,0 SW 2,7 1035,1 22 -
14:39 4,5 -13,9 9,3 NW 1,4 1035,1 25 -
14:44 4,7 -15,3 14,8 WNW 5,0 1035,1 22 -
14:49 4,6 -14,8 7,4 NW 3,2 1035,1 23 -
14:54 4,7 -14,7 14,8 SW 6,3 1035,1 23 -
14:59 4,7 -14,7 5,6 NW 0,6 1034,8 23 -
15:04 4,9 -14,1 5,6 SSW 3,1 1034,8 24 -
15:09 4,8 -14,7 27,8 NW 4,2 1034,8 23 -
15:14 4,5 -14,9 9,3 WNW 1,4 1034,8 23 -
15:19 4,6 -14,8 13,0 West 4,0 1034,8 23 -
15:24 4,8 -13,6 6,4 SSE 2,9 1034,8 25 -
15:29 4,7 -13,7 11,3 South 6,9 1034,4 25 -
15:34 4,6 -13,3 5,6 SE 0,8 1034,8 26 -
15:39 4,5 -13,4 11,1 WNW 4,2 1034,4 26 -
15:44 4,6 -12,8 11,3 SSW 6,8 1034,8 27 -
15:49 4,5 -12,9 5,6 SE 5,6 1034,4 27 -
15:54 4,4 -12,6 13,0 SSW 4,0 1034,8 28 -
15:59 4,4 -12,1 11,1 SSE 1,3 1034,8 29 -
16:04 4,2 -12,3 9,3 WSW 10,8 1034,8 29 -
16:09 4,1 -11,9 5,6 West 5,0 1035,1 30 -
16:14 4,1 -12,0 9,3 WSW 5,3 1035,1 30 -
16:19 3,8 -12,2 7,4 SW 1,6 1035,1 30 -
16:24 3,6 -12,4 13,0 NW 1,6 1035,1 30 -
16:29 3,4 -12,1 3,7 WNW 1,4 1035,1 31 -
16:34 3,3 -11,8 5,6 SSE 3,7 1034,8 32 -
16:39 3,2 -11,6 9,3 WSW 5,0 1034,4 33 -
16:44 3,2 -10,8 3,7 West 1,3 1034,8 35 -
16:49 3,2 -11,2 13,0 NNW 1,9 1035,1 34 -
16:54 3,1 -10,9 3,7 South 1,4 1035,1 35 -
16:59 3,1 -10,9 9,3 WSW 1,6 1035,1 35 -
17:04 3,0 -11,0 5,6 SSW 2,3 1035,1 35 -
17:09 2,9 -10,7 11,1 SSE 3,1 1035,1 36 -
17:14 2,8 -10,8 9,3 SSE 2,4 1035,1 36 -
17:19 2,8 -10,4 5,6 West 0,6 1035,1 37 -
17:24 2,8 -10,1 5,6 SW 0,6 1034,8 38 -
17:29 2,8 -9,8 5,6 NW 1,4 1034,8 39 -
17:34 2,7 -9,6 5,6 WSW 2,3 1034,8 40 -
17:39 2,6 -9,1 5,6 WSW 1,0 1034,8 42 -
17:44 2,6 -8,5 7,4 West 2,9 1034,4 44 -
17:49 2,5 -8,3 11,1 SE 4,2 1034,4 45 -
17:54 2,4 -8,0 5,6 West 0,8 1034,8 46 -
17:59 2,4 -7,7 5,6 WSW 1,6 1034,8 47 -
18:04 2,4 -7,5 11,1 WNW 2,9 1034,8 48 -
18:09 2,3 -7,3 5,6 West 0,6 1034,8 49 -
18:14 2,3 -7,1 5,6 SW 2,1 1034,8 50 -
18:19 2,2 -6,9 1,9 West 1,6 1034,8 51 -
18:24 2,3 -6,3 5,6 WNW 0,8 1034,8 53 -
18:29 2,2 -5,9 1,9 West 0,2 1035,1 55 -
18:34 2,2 -5,9 1,9 West 1,4 1035,1 55 -
18:39 2,3 -5,6 1,9 SSW 0,5 1035,1 56 -
18:44 2,3 -5,2 13,0 North 4,5 1035,1 58 -
18:49 2,3 -4,9 3,7 North 0,5 1035,1 59 -
18:54 2,3 -4,9 1,9 NW 0,2 1035,4 59 -
18:59 2,3 -4,9 1,9 NNW   1035,4 59 -
19:04 2,3 -4,9 1,9 NW 0,2 1035,1 59 -
19:09 2,2 -5,3 5,6 WNW 2,7 1035,1 58 -
19:14 2,2 -5,0 1,9 SSW 0,5 1035,4 59 -
19:19 2,1 -5,6 5,6 NW 0,8 1035,1 57 -
19:24 2,0 -5,4 1,9 WSW 0,5 1035,4 58 -
19:29 1,9 -5,7 1,9 SW   1035,1 57 -
19:34 1,9 -5,7 6,4 WNW 2,4 1035,1 57 -
19:39 1,8 -6,0 5,6 WSW 1,6 1035,1 56 -
19:44 1,8 -5,8 3,7 NW 0,2 1035,1 57 -
19:49 1,8 -5,6 7,4 West 1,6 1035,1 58 -
19:54 1,7 -5,4 5,6 WSW 0,3 1035,1 59 -
19:59 1,7 -5,7 7,4 West 1,4 1035,1 58 -
20:04 1,7 -5,7 3,7 West 0,6 1035,1 58 -
20:09 1,6 -5,8 11,1 WNW 3,5 1035,1 58 -
20:14 1,5 -6,1 5,6 SW 0,6 1035,1 57 -
20:19 1,4 -6,2 5,6 SW 0,2 1035,1 57 -
20:24 1,4 -6,4 5,6 WSW 3,4 1035,1 56 -
20:29 1,3 -6,5 13,0 NNW 1,9 1034,8 56 -
Daily Summary for Tuesday Jan 22 2019
Time Temp. ( °C ) Dew pt. ( °C ) Wind ( km/h ) from Gust ( km/h ) Pressure ( hPa ) Humid.( % ) Rainrate ( cm )
High4,9 -4,9 27,8 WNW ( 147/858 ) 10,8 1039,5 64 -
Average-1,4 -12,2 5,6 West #32/246 1,6 1036,1 46 -
Low-6,4 -15,8 -   0,0 1034,4 21 -
Daily Tabular details for Tuesday Jan 22 2019
Time Temp. ( °C ) Dew pt. ( °C ) Wind ( km/h ) from Gust ( km/h ) Pressure ( hPa ) Humid.( % ) Rainrate ( cm )
00:04 -4,6 -11,2 1,9 SE 0,2 1035,8 60 -
00:09 -4,7 -11,3   Calm 0,3 1035,8 60 -
00:14 -4,7 -11,3 5,6 East 0,8 1036,1 60 -
00:19 -4,8 -11,4   Calm   1036,1 60 -
00:24 -4,7 -11,3 1,9 SW 0,2 1036,1 60 -
00:29 -4,7 -11,3   Calm   1036,1 60 -
00:34 -4,8 -11,2   Calm   1036,5 61 -
00:39 -4,8 -11,4   Calm 0,2 1036,5 60 -
00:44 -4,9 -11,1 1,9 ESE 0,6 1036,1 62 -
00:49 -4,9 -11,3   Calm 0,2 1036,1 61 -
00:54 -4,9 -11,4 1,9 South 0,2 1036,1 60 -
00:59 -4,8 -11,4   Calm   1036,5 60 -
01:04 -4,8 -11,4   Calm   1036,5 60 -
01:09 -4,8 -11,4 1,9 South   1036,5 60 -
01:14 -4,8 -11,8   Calm   1036,5 58 -
01:19 -4,9 -11,1 1,9 West 0,2 1036,5 62 -
01:24 -5,0 -11,4 1,9 West 0,5 1036,5 61 -
01:29 -5,0 -11,4 1,9 West   1036,5 61 -
01:34 -5,1 -11,2   Calm   1036,5 62 -
01:39 -5,2 -11,3   Calm   1036,5 62 -
01:44 -5,2 -11,2 1,9 SW 0,2 1036,5 63 -
01:49 -5,3 -11,1 1,9 East 0,2 1036,5 64 -
01:54 -5,2 -11,7 1,9 ESE 0,2 1036,5 60 -
01:59 -5,1 -11,5 1,9 SSW 1,1 1036,1 61 -
02:04 -4,9 -11,9 1,9 WNW 0,3 1036,5 58 -
02:09 -4,9 -11,7 1,9 NNE 0,2 1036,5 59 -
02:14 -4,9 -11,7 3,7 SSE 0,3 1036,5 59 -
02:19 -5,0 -11,4 1,9 SSE 0,2 1036,5 61 -
02:24 -5,1 -11,5 1,9 West 0,3 1036,5 61 -
02:29 -4,9 -12,2 1,9 WSW 0,3 1036,5 57 -
02:34 -4,8 -11,8 1,9 North 0,5 1036,5 58 -
02:39 -4,8 -11,8 1,9 NNW   1036,8 58 -
02:44 -4,9 -11,9 3,7 West 0,8 1036,8 58 -
02:49 -4,8 -12,1 1,9 WNW 1,8 1036,8 57 -
02:54 -4,8 -12,3 3,7 WSW 1,9 1036,8 56 -
02:59 -4,8 -11,8 1,9 SSW 0,2 1036,8 58 -
03:04 -4,9 -11,9 1,9 SW 0,6 1036,8 58 -
03:09 -5,0 -12,2 1,9 SW   1037,1 57 -
03:14 -5,1 -12,1 1,9 WSW 0,2 1037,1 58 -
03:19 -5,2 -12,2   Calm 0,5 1037,1 58 -
03:24 -5,2 -12,0 1,9 West 0,3 1037,1 59 -
03:29 -5,2 -12,2 1,9 East 0,3 1037,1 58 -
03:34 -5,2 -11,9   Calm 0,2 1037,1 59 -
03:39 -5,2 -12,7 1,9 South   1037,1 56 -
03:44 -5,3 -12,3 1,9 NW 0,5 1037,1 58 -
03:49 -5,3 -12,5 1,9 ESE   1037,1 57 -
03:54 -5,2 -12,9 1,9 SW 1,1 1037,1 55 -
03:59 -5,2 -12,7 1,9 NW 0,2 1037,5 56 -
04:04 -5,2 -13,3 3,7 WNW 0,3 1037,5 53 -
04:09 -5,1 -13,4 1,9 WNW   1037,1 52 -
04:14 -5,2 -13,3 3,7 WNW 0,8 1037,1 53 -
04:19 -5,2 -13,7 3,7 WNW   1037,1 51 -
04:24 -5,2 -13,1   Calm 0,2 1037,1 54 -
04:29 -5,3 -12,9 1,9 SW 0,5 1037,1 55 -
04:34 -5,4 -13,5 5,6 NE 1,1 1037,1 53 -
04:39 -5,4 -12,8   Calm 0,2 1037,1 56 -
04:44 -5,6 -13,2 1,9 ESE   1037,1 55 -
04:49 -5,7 -13,1 1,9 ESE   1037,5 56 -
04:54 -5,7 -13,1   Calm   1037,1 56 -
04:59 -5,8 -13,2 1,9 SE 0,3 1037,5 56 -
05:04 -5,7 -13,1   Calm 0,6 1037,5 56 -
05:09 -5,7 -13,3 1,9 SSW 0,2 1037,5 55 -
05:14 -5,7 -13,3   Calm   1037,5 55 -
05:19 -5,7 -13,3 1,9 SSW 0,8 1037,5 55 -
05:24 -5,8 -12,9 1,9 SSW 0,5 1037,5 57 -
05:29 -5,8 -13,4 1,9 SW 0,2 1037,5 55 -
05:34 -5,8 -13,6 1,9 SW 0,2 1037,8 54 -
05:39 -5,8 -13,8 1,9 SSW 1,3 1037,8 53 -
05:44 -5,8 -13,8 1,9 SW 0,2 1037,8 53 -
05:49 -5,8 -14,1 3,7 SSW 0,6 1037,8 52 -
05:54 -5,8 -13,8 1,9 South 0,3 1037,8 53 -
05:59 -5,8 -13,7   Calm   1037,8 54 -
06:04 -5,9 -13,6 1,9 SSW 0,2 1038,1 55 -
06:09 -6,0 -13,6   Calm   1038,1 55 -
06:14 -5,9 -14,2 5,6 SSW 1,8 1038,1 52 -
06:19 -5,8 -14,1 1,9 South   1038,5 52 -
06:24 -5,9 -13,9   Calm 0,5 1038,5 53 -
06:29 -5,9 -14,0   Calm   1038,5 53 -
06:34 -5,9 -13,8 1,9 WNW 0,3 1038,8 54 -
06:39 -6,1 -13,2 1,9 South 0,2 1038,8 57 -
06:44 -6,2 -13,2 1,9 South   1038,8 58 -
06:49 -6,4 -13,1 1,9 South 0,2 1038,8 59 -
06:54 -6,4 -13,3 1,9 South   1038,8 58 -
06:59 -6,4 -13,2   Calm   1038,8 59 -
07:04 -6,4 -13,3 3,2 SW 1,0 1038,8 58 -
07:09 -6,4 -13,5 1,9 West 0,5 1038,8 57 -
07:15 -6,4 -13,8 1,9 South 0,5 1038,8 56 -
07:19 -6,4 -13,8   Calm   1038,8 56 -
07:24 -6,2 -13,8 4,8 WSW 0,6 1038,8 55 -
07:29 -6,0 -13,8 4,8 NW 2,6 1038,8 54 -
07:34 -6,0 -13,8 3,2 WNW 0,3 1038,8 54 -
07:39 -6,0 -13,8 1,9 SE 0,3 1039,2 54 -
07:44 -6,0 -13,8 1,9 NW 2,4 1039,2 54 -
07:49 -5,9 -13,8 9,3 SSE   1039,2 54 -
07:54 -5,9 -13,7 1,9 NW 1,0 1039,2 54 -
07:59 -5,8 -14,1 4,8 WNW 0,8 1039,2 52 -
08:04 -5,7 -14,0 1,9 SSW 0,6 1039,5 52 -
08:09 -5,6 -14,2 5,6 NNE 2,4 1039,5 51 -
08:14 -5,6 -14,1 1,9 SSW 0,3 1039,5 51 -
08:19 -5,7 -13,5 1,9 NNW 0,3 1039,5 54 -
08:24 -5,7 -13,6 1,6 SW 0,2 1039,5 54 -
08:29 -5,7 -13,7   Calm   1039,2 53 -
08:34 -5,7 -13,1   Calm   1039,5 56 -
08:39 -5,6 -13,9 3,7 WNW 1,0 1039,5 52 -
08:44 -5,6 -13,4 5,6 ESE 1,1 1039,5 54 -
08:49 -5,4 -13,8 3,7 NNW 2,3 1039,2 52 -
08:54 -5,3 -13,6 1,9 NW 4,0 1039,2 52 -
08:59 -4,9 -14,2 5,6 WNW 1,6 1039,2 48 -
09:04 -4,7 -14,3 5,6 WSW 0,8 1039,2 47 -
09:09 -4,6 -13,9 4,8 NNW 1,8 1039,2 48 -
09:14 -4,3 -14,2 9,3 West 0,5 1039,2 46 -
09:19 -4,1 -14,1 5,6 ESE 1,6 1039,2 46 -
09:24 -3,9 -14,4 6,4 WNW 2,3 1039,2 44 -
09:29 -3,6 -14,7 3,2 SSW 2,7 1039,2 42 -
09:34 -3,4 -14,8 14,8 SSE 1,9 1039,2 41 -
09:39 -3,2 -14,6 11,1 South 1,1 1039,2 41 -
09:44 -3,1 -14,6 5,6 West 1,0 1039,2 41 -
09:49 -2,9 -14,7 1,9 WNW 1,4 1039,2 40 -
09:54 -2,8 -14,8 5,6 WNW 1,8 1039,2 39 -
09:59 -2,7 -14,7 11,1 WNW 2,9 1039,2 39 -
10:04 -2,5 -14,6 3,7 NW 1,0 1039,2 39 -
10:09 -2,4 -14,8 9,3 WNW 5,8 1039,2 38 -
10:14 -2,2 -14,0 3,7 West 0,2 1039,2 40 -
10:19 -2,0 -14,1 5,6 NW 0,2 1039,2 39 -
10:24 -1,8 -13,9 16,1 WNW 2,3 1039,2 39 -
10:29 -1,6 -14,4 13,0 East 1,1 1039,2 37 -
10:34 -1,6 -14,7 11,1 North 3,4 1039,2 36 -
10:39 -1,5 -14,7 6,4 NW 3,4 1039,2 36 -
10:44 -1,3 -14,4 3,7 NW 2,3 1039,2 36 -
10:49 -1,2 -14,4 5,6 West 1,6 1039,2 36 -
10:54 -1,0 -14,2 5,6 NW 2,1 1039,2 36 -
10:59 -0,9 -14,5 11,1 SW 4,0 1039,2 35 -
11:04 -0,8 -14,4 5,6 NW 3,1 1039,2 35 -
11:09 -0,7 -14,3 18,5 NW 2,3 1038,8 35 -
11:14 -0,4 -13,7 5,6 WNW 0,5 1039,2 36 -
11:19 -0,4 -13,7 12,9 West 2,1 1039,2 36 -
11:24 -0,3 -13,9 9,3 SW 2,9 1038,8 35 -
11:29 -0,2 -14,2 13,0 West 6,3 1039,2 34 -
11:34 -0,3 -14,3 7,4 ENE 4,0 1038,8 34 -
11:39 -0,1 -14,1 5,6 SSE 0,8 1038,8 34 -
11:44 0,3 -13,4 9,3 WNW 1,8 1038,5 35 -
11:49 0,5 -13,2 7,4 SSW 3,2 1038,5 35 -
11:54 0,7 -13,8 14,8 West 3,9 1038,5 33 -
11:59 0,8 -13,7 9,3 WNW 4,2 1038,1 33 -
12:04 1,1 -13,4 13,0 South 3,9 1038,1 33 -
12:09 1,3 -13,2 5,6 WSW 3,1 1038,1 33 -
12:14 1,5 -13,4 9,3 SW 1,1 1038,1 32 -
12:19 1,5 -13,8 14,8 North 3,7 1037,8 31 -
12:24 1,5 -14,2 14,8 SSW 3,1 1037,8 30 -
12:29 1,5 -14,2 9,3 WSW 7,9 1037,8 30 -
12:34 1,7 -13,7 5,6 WNW 2,3 1037,8 31 -
12:39 1,8 -14,4 16,7 South 1,4 1037,5 29 -
12:44 1,9 -14,3 20,4 West 2,1 1037,5 29 -
12:49 2,1 -14,2 11,1 ESE 6,4 1037,1 29 -
12:54 2,0 -14,7 25,9 WNW 6,1 1037,1 28 -
12:59 2,2 -14,0 5,6 NNW 8,4 1037,1 29 -
13:04 2,7 -13,6 11,3 NW 2,6 1036,8 29 -
13:09 2,8 -14,4 11,1 SSE 2,9 1036,8 27 -
13:14 2,8 -14,9 16,7 South 5,1 1036,5 26 -
13:19 2,9 -14,8 13,0 SSE 1,3 1036,5 26 -
13:24 3,0 -14,7 14,8 WNW 2,4 1036,1 26 -
13:29 3,2 -14,0 7,4 SW 1,6 1036,1 27 -
13:34 3,3 -14,9 5,6 SE 3,7 1036,1 25 -
13:39 3,3 -14,9 5,6 West 7,2 1036,1 25 -
13:44 3,3 -14,9 14,8 NW 6,1 1035,8 25 -
13:49 3,6 -14,2 5,6 NW 5,1 1035,8 26 -
13:54 3,8 -13,9 5,6 SSE 1,9 1035,8 26 -
13:59 4,1 -14,2 11,1 West 3,7 1035,4 25 -
14:04 4,3 -14,6 13,0 West 5,0 1035,1 24 -
14:09 4,4 -15,0 7,4 SSW 2,4 1035,4 23 -
14:14 4,6 -14,8 9,3 NW 2,3 1035,4 23 -
14:19 4,7 -15,8 14,8 North 5,3 1035,1 21 -
14:24 4,8 -14,6 9,3 West 2,7 1035,1 23 -
14:29 4,8 -15,2 7,4 WSW 1,6 1035,1 22 -
14:34 4,5 -15,4 13,0 SW 2,7 1035,1 22 -
14:39 4,5 -13,9 9,3 NW 1,4 1035,1 25 -
14:44 4,7 -15,3 14,8 WNW 5,0 1035,1 22 -
14:49 4,6 -14,8 7,4 NW 3,2 1035,1 23 -
14:54 4,7 -14,7 14,8 SW 6,3 1035,1 23 -
14:59 4,7 -14,7 5,6 NW 0,6 1034,8 23 -
15:04 4,9 -14,1 5,6 SSW 3,1 1034,8 24 -
15:09 4,8 -14,7 27,8 NW 4,2 1034,8 23 -
15:14 4,5 -14,9 9,3 WNW 1,4 1034,8 23 -
15:19 4,6 -14,8 13,0 West 4,0 1034,8 23 -
15:24 4,8 -13,6 6,4 SSE 2,9 1034,8 25 -
15:29 4,7 -13,7 11,3 South 6,9 1034,4 25 -
15:34 4,6 -13,3 5,6 SE 0,8 1034,8 26 -
15:39 4,5 -13,4 11,1 WNW 4,2 1034,4 26 -
15:44 4,6 -12,8 11,3 SSW 6,8 1034,8 27 -
15:49 4,5 -12,9 5,6 SE 5,6 1034,4 27 -
15:54 4,4 -12,6 13,0 SSW 4,0 1034,8 28 -
15:59 4,4 -12,1 11,1 SSE 1,3 1034,8 29 -
16:04 4,2 -12,3 9,3 WSW 10,8 1034,8 29 -
16:09 4,1 -11,9 5,6 West 5,0 1035,1 30 -
16:14 4,1 -12,0 9,3 WSW 5,3 1035,1 30 -
16:19 3,8 -12,2 7,4 SW 1,6 1035,1 30 -
16:24 3,6 -12,4 13,0 NW 1,6 1035,1 30 -
16:29 3,4 -12,1 3,7 WNW 1,4 1035,1 31 -
16:34 3,3 -11,8 5,6 SSE 3,7 1034,8 32 -
16:39 3,2 -11,6 9,3 WSW 5,0 1034,4 33 -
16:44 3,2 -10,8 3,7 West 1,3 1034,8 35 -
16:49 3,2 -11,2 13,0 NNW 1,9 1035,1 34 -
16:54 3,1 -10,9 3,7 South 1,4 1035,1 35 -
16:59 3,1 -10,9 9,3 WSW 1,6 1035,1 35 -
17:04 3,0 -11,0 5,6 SSW 2,3 1035,1 35 -
17:09 2,9 -10,7 11,1 SSE 3,1 1035,1 36 -
17:14 2,8 -10,8 9,3 SSE 2,4 1035,1 36 -
17:19 2,8 -10,4 5,6 West 0,6 1035,1 37 -
17:24 2,8 -10,1 5,6 SW 0,6 1034,8 38 -
17:29 2,8 -9,8 5,6 NW 1,4 1034,8 39 -
17:34 2,7 -9,6 5,6 WSW 2,3 1034,8 40 -
17:39 2,6 -9,1 5,6 WSW 1,0 1034,8 42 -
17:44 2,6 -8,5 7,4 West 2,9 1034,4 44 -
17:49 2,5 -8,3 11,1 SE 4,2 1034,4 45 -
17:54 2,4 -8,0 5,6 West 0,8 1034,8 46 -
17:59 2,4 -7,7 5,6 WSW 1,6 1034,8 47 -
18:04 2,4 -7,5 11,1 WNW 2,9 1034,8 48 -
18:09 2,3 -7,3 5,6 West 0,6 1034,8 49 -
18:14 2,3 -7,1 5,6 SW 2,1 1034,8 50 -
18:19 2,2 -6,9 1,9 West 1,6 1034,8 51 -
18:24 2,3 -6,3 5,6 WNW 0,8 1034,8 53 -
18:29 2,2 -5,9 1,9 West 0,2 1035,1 55 -
18:34 2,2 -5,9 1,9 West 1,4 1035,1 55 -
18:39 2,3 -5,6 1,9 SSW 0,5 1035,1 56 -
18:44 2,3 -5,2 13,0 North 4,5 1035,1 58 -
18:49 2,3 -4,9 3,7 North 0,5 1035,1 59 -
18:54 2,3 -4,9 1,9 NW 0,2 1035,4 59 -
18:59 2,3 -4,9 1,9 NNW   1035,4 59 -
19:04 2,3 -4,9 1,9 NW 0,2 1035,1 59 -
19:09 2,2 -5,3 5,6 WNW 2,7 1035,1 58 -
19:14 2,2 -5,0 1,9 SSW 0,5 1035,4 59 -
19:19 2,1 -5,6 5,6 NW 0,8 1035,1 57 -
19:24 2,0 -5,4 1,9 WSW 0,5 1035,4 58 -
19:29 1,9 -5,7 1,9 SW   1035,1 57 -
19:34 1,9 -5,7 6,4 WNW 2,4 1035,1 57 -
19:39 1,8 -6,0 5,6 WSW 1,6 1035,1 56 -
19:44 1,8 -5,8 3,7 NW 0,2 1035,1 57 -
19:49 1,8 -5,6 7,4 West 1,6 1035,1 58 -
19:54 1,7 -5,4 5,6 WSW 0,3 1035,1 59 -
19:59 1,7 -5,7 7,4 West 1,4 1035,1 58 -
20:04 1,7 -5,7 3,7 West 0,6 1035,1 58 -
20:09 1,6 -5,8 11,1 WNW 3,5 1035,1 58 -
20:14 1,5 -6,1 5,6 SW 0,6 1035,1 57 -
20:19 1,4 -6,2 5,6 SW 0,2 1035,1 57 -
20:24 1,4 -6,4 5,6 WSW 3,4 1035,1 56 -
20:29 1,3 -6,5 13,0 NNW 1,9 1034,8 56 -

Download your copy of this data-set  here

Our weather-data as stored at Weather Underground. Script developed by Jim McMurry. Adapted for the template by Leuven-Template.eu

You find our weather info also at:

Weather Underground

AWEKAS

Citizen Weather Observer Program (CWOP)

HAMweather, WeatherForYou, PWS Weather

Equipment we use:

Weather-station
Davis VP2

Weather-program
Weather Display

Weather-server
Dell Poweredge SC420

Provider
1&1 IONOS

Davis VP2

Weather Display

Dell Poweredge SC420

1&1 IONOS